Regional Weather Roundup
Issued by NWS Sterling, VA

Home | Current Version | Previous Version | Graphics & Text | Print | Product List | Glossary On
Versions: 1 2 3 4 5 6 7 8 9 10 11 12 13 14 15 16 17 18 19 20 21 22 23 24 25 26 27 28 29 30 31 32 33 34 35 36 37 38 39 40 41 42 43 44 45 46 47 48 49 50
625
ASUS41 KLWX 310110
RWRLWX

REGIONAL WEATHER ROUNDUP
NATIONAL WEATHER SERVICE BALTIMORE MD/WASHINGTON DC
900 PM EDT TUE AUG 30 2016

Note: "FAIR" indicates few or no clouds below 12,000 feet
with no significant weather and/or obstructions to visibility.
 TC=TEMPERATURE CELSIUS

 * =Non NWS site. Station does not report precipitation (e.g. rain,
    snow, etc.), thunder, or fog.

DCZ001-MDZ009-015-VAZ040>042-051-053>054-310200-
WASHINGTON METRO

CITY           SKY/WX    TMP DP  RH WIND       PRES   REMARKS
WASHINGTON NAT PTCLDY    82  62  50 SE5       30.04R
DULLES         PTCLDY    79  65  62 E5        30.04R
ANDREWS AFB    CLEAR     74  65  72 CALM      30.04R
FT BELVOIR     CLEAR     74  65  75 CALM      30.04R
COLLEGE PARK*  CLEAR     72  63  73 CALM      30.04R
LEESBURG*      CLEAR     77  70  78 NW5       30.05S
GAITHERSBURG*  CLEAR     73  63  68 SE5       30.09R

$$

MDZ006>007-011-014-310200-
BALTIMORE METRO

CITY           SKY/WX    TMP DP  RH WIND       PRES   REMARKS
BWI AIRPORT    PTCLDY    73  64  73 CALM      30.04R
MD SCIENCE CTR   N/A     82  62  50 MISG      30.04R
MARTIN STATE   CLEAR     77  68  73 CALM      30.05R
ANNAPOLIS      CLEAR     80  71  74 CALM      30.04R
FORT MEADE*    CLEAR     68  64  88 CALM      30.07R

$$

MDZ012-015-019>023-310200-
MARYLAND EASTERN SHORE

CITY           SKY/WX    TMP DP  RH WIND       PRES   REMARKS
OCEAN CITY     CLEAR     77  72  84 SE3       30.05R
SALISBURY      CLEAR     74  71  91 CALM      30.04R
BAY BRIDGE AP* CLEAR     77  66  69 MISG      30.04R
CAMBRIDGE*     CLEAR     72  66  83 CALM      30.04R
EASTON*        CLEAR     77  68  73 CALM      30.08R

$$

MDZ017>025-310200-
SOUTHERN MARYLAND

CITY           SKY/WX    TMP DP  RH WIND       PRES   REMARKS
PATUXENT RIVER CLEAR     75  65  70 NE5       30.03R
ST INIGOES     CLEAR     71  67  87 N3        30.02R
LEONARDTOWN*   CLEAR     72  64  78 CALM      30.05S

$$

MDZ003>005-310200-
NORTH CENTRAL MARYLAND

CITY           SKY/WX    TMP DP  RH WIND       PRES   REMARKS
FREDERICK*     CLEAR     72  72 100 SE5       30.07R
HAGERSTOWN APT CLEAR     81  57  43 S5        30.04R

$$

MDZ501>502-310200-
WESTERN MARYLAND

CITY           SKY/WX    TMP DP  RH WIND       PRES   REMARKS
OAKLAND*       CLEAR     68  54  60 CALM      30.18R
CUMBERLAND*    CLEAR     75  59  57 CALM      30.09R

$$

VAZ025>031-310200-
SHENANDOAH VALLEY

CITY           SKY/WX    TMP DP  RH WIND       PRES   REMARKS
WINCHESTER*    CLEAR     73  63  68 CALM      30.05S
FRONT ROYAL*   FAIR      72  68  88 CALM      30.05R
LURAY*         FAIR      73  72  94 CALM      30.06R
NEW MARKET*    MOCLDY   N/A N/A N/A CALM      30.05R
STAUNTON*      RAIN      73  70  89 W6        30.11R
WAYNESBORO*    CLOUDY    77  68  73 S10       30.08R

$$

WVZ021-048>050-054>055-310200-
EASTERN WEST VIRGINIA PANHANDLE

CITY           SKY/WX    TMP DP  RH WIND       PRES   REMARKS
MARTINSBURG    CLEAR     74  63  68 SE3       30.04R
PETERSBURG*    PTCLDY    74  66  75 W3        30.06R

$$

VAZ036>039-050-310200-
CENTRAL FOOTHILLS

CITY           SKY/WX    TMP DP  RH WIND       PRES   REMARKS
CHARLOTTESVILL PTCLDY    82  68  62 E3        30.04R
CULPEPER*      CLEAR     75  72  91 CALM      30.04S
ORANGE*        NOT AVBL
GORDONSVILLE*  FAIR      73  72  94 CALM      30.04R
WARRENTON*     FAIR      72  64  77 CALM      30.04R

$$

VAZ055>057-310200-
NORTH AND CENTRAL PIEDMONT

CITY           SKY/WX    TMP DP  RH WIND       PRES   REMARKS
FREDERICKSBRG* CLEAR     76  70  81 CALM      30.02R
STAFFORD*      CLEAR     71  68  92 CALM      30.07R

$$

NCZ024-NYZ072-PAZ021-071-VAZ022-071-310200-
OTHER REGIONAL OBSERVATIONS

CITY           SKY/WX    TMP DP  RH WIND       PRES   REMARKS
NEW YORK CITY  PTCLDY    76  65  68 CALM      30.08R
PHILADELPHIA   PTCLDY    79  70  74 S7        30.04R
PITTSBURGH     MOCLDY    75  55  49 VRB3      30.07S
ROANOKE        PTCLDY    81  69  67 CALM      30.08R
RICHMOND       PTCLDY    79  69  71 E6        30.03R
RALEIGH        PTCLDY    79  69  71 E3        30.02R

$$

ANZ530>537-310200-
MARINE OBSERVATIONS

STATION/POSITION TIME  TEMP    WIND        PRES
                       AIR SEA DIR/SP/G
                 (UTC) (F)     (DEG/KT/KT) (MB)
THOMAS PT LIGHT  0100   82 83   90/  5/  6 1018.4R
BALT KEY BRIDGE  0042   82                   N/A
COVE POINT       0042   82                   N/A
LEWISETTA        0042   83 85                N/A
SOLOMONS ISLAND  0042   81 84                N/A
PINEY POINT      0024           80/  4/  5   N/A

$$





USA.gov is the U.S. government's official web portal to all federal, state and local government web resources and services.